COSMOS 2522 (752) (42939 NORAD) Tracking and Keplerian Element Data

This shows tracking and keplerian element data for the satellite.

Feedback or suggestion? Click here.




ElementValue
Catalog42939
NameCOSMOS 2522 (752)
Epoch Orbit3105
Epoch Day261.55057808
Epoch Year2021
RAAN251.2166
Inclination64.2095
Eccentricity0.0010149
Argument of Perigee247.067
Mean Anonmoly60.3255
Mean Motion2.13102031
Decay Rate2.8E-07
L11 42939U 17055A 21261.55057808 .00000028 00000-0 00000-0 0 9995
L22 42939 64.2095 251.2166 0010149 247.0670 60.3255 2.13102031 31052

Live tracking and technical data element details for COSMOS 2522 (752) (NORAD 42939). COSMOS 2522 (752) can be tracked NOW for your location showing map with azimuth and elevation plus other details from your city location.

Track the satellite on the map from your city or location and see movement details for azimuth, elevation, latitude, longitude, range, height, and movement on the map or in text.







IsCatalogInMostPopularTable: catalog: 42939, numindb: 565
Update: records affected: 1



GetName: 42939 COSMOS 2522 (752)

Hit Count: updated at: Sat, 25 Sep 2021 23:58:38 GMT